Location: Nairn
(57.5833°N, 3.8667°W)
Time: 22:33:59
(UTC+00:00)

Tiros 1 - Pass Details

Date: 30 November 2020
Orbit: 630 x 663 km, 48.4° (Epoch: 22 January)

Event Time Altitude Azimuth Distance (km) Brightness Sun altitude
Rises 15:36:02 0° 215° (SW) 2,989 12.7 -0.8°
Reaches altitude 10° 15:39:02 10° 196° (SSW) 2,077 10.8 -1.1°
Maximum altitude 15:42:10 18° 155° (SSE) 1,632 9.5 -1.4°
Drops below altitude 10° 15:45:19 10° 114° (ESE) 2,075 9.5 -1.7°
Sets 15:48:19 0° 95° (E) 2,984 10.1 -2.0°
